SV1TGC Weather Reports


time (UTC)temp
F
wind
direction
speed
knots
gust
knots
rain 1hr
in
rain 24hr
in
rain mn
in
humidity
%
barometer
mb
20260507040534 56 333 1.7 4.3 0.00 0.00 0.00 80 1017.0
20260507040055 55 333 0.0 2.6 0.00 0.00 0.00 79 1017.0
20260507035533 55 0 0.0 2.6 0.00 0.00 0.00 79 1017.0
20260507035034 55 333 0.9 2.6 0.00 0.00 0.00 78 1017.1
20260507034549 55 333 0.0 0.0 0.00 0.00 0.00 78 1017.0
20260507034033 56 0 0.0 1.7 0.00 0.00 0.00 78 1016.9
20260507033536 56 0 0.0 1.7 0.00 0.00 0.00 78 1016.7
20260507033047 56 0 0.0 0.9 0.00 0.00 0.00 78 1016.7
20260507032533 56 0 0.0 3.5 0.00 0.00 0.00 78 1016.7
20260507032033 55 0 0.0 4.3 0.00 0.00 0.00 77 1016.7
20260507031550 55 333 1.7 6.1 0.00 0.00 0.00 78 1016.7
20260507031033 55 355 2.6 6.1 0.00 0.00 0.00 78 1016.7
20260507030532 55 355 3.5 5.2 0.00 0.00 0.00 79 1016.7
20260507030056 55 355 0.0 3.5 0.00 0.00 0.00 79 1016.6
20260507025532 55 0 0.0 0.0 0.00 0.00 0.00 79 1016.6
20260507025033 55 0 0.0 0.0 0.00 0.00 0.00 78 1016.6
20260507024548 55 0 0.0 0.0 0.00 0.00 0.00 78 1016.6
20260507024033 55 0 0.0 0.0 0.00 0.00 0.00 77 1016.8
20260507023533 56 0 0.0 0.0 0.00 0.00 0.00 76 1016.7
20260507023103 56 0 0.0 1.7 0.00 0.00 0.00 76 1016.8
20260507022533 56 0 0.0 3.5 0.00 0.00 0.00 77 1016.7
20260507022034 56 0 0.0 3.5 0.00 0.00 0.00 78 1016.7
20260507021552 56 347 0.0 2.6 0.00 0.00 0.00 78 1016.6
20260507021033 55 347 1.7 2.6 0.00 0.00 0.00 78 1016.6
20260507020533 55 0 0.0 0.9 0.00 0.00 0.00 78 1016.8
20260507020053 55 0 0.0 0.9 0.00 0.00 0.00 77 1016.7
20260507015532 56 0 0.0 2.6 0.00 0.00 0.00 77 1016.7
20260507015033 56 0 0.0 2.6 0.00 0.00 0.00 77 1016.6
20260507014601 56 0 0.9 2.6 0.00 0.00 0.00 77 1016.6
20260507014033 56 347 0.9 2.6 0.00 0.00 0.00 76 1016.6
20260507013533 56 347 0.0 2.6 0.00 0.00 0.00 75 1016.3
20260507013109 56 0 0.0 2.6 0.00 0.00 0.00 75 1016.5
20260507012535 56 352 0.0 2.6 0.00 0.00 0.00 75 1016.3
20260507012034 57 352 0.9 2.6 0.00 0.00 0.00 73 1016.2
20260507011548 57 352 0.9 2.6 0.00 0.00 0.00 73 1016.1
20260507011033 57 297 0.0 1.7 0.00 0.00 0.00 73 1015.9
20260507010533 58 0 0.0 1.7 0.00 0.00 0.00 73 1015.9
20260507010047 58 0 0.0 1.7 0.00 0.00 0.00 73 1015.8
20260507005534 57 297 0.0 1.7 0.00 0.00 0.00 73 1015.8
20260507005034 58 297 0.0 1.7 0.00 0.00 0.00 72 1015.9
20260507004545 58 0 0.0 3.5 0.00 0.00 0.00 72 1015.9
20260507004033 58 297 0.0 4.3 0.00 0.00 0.00 72 1015.8
20260507003534 58 298 2.6 4.3 0.00 0.00 0.00 73 1015.8
20260507003041 57 105 1.7 4.3 0.00 0.00 0.00 73 1015.7
20260507002533 57 14 2.6 4.3 0.00 0.00 0.00 74 1015.8
20260507002033 57 355 2.6 4.3 0.00 0.00 0.00 75 1015.9
20260507001608 57 318 1.7 2.6 0.00 0.00 0.00 74 1015.9
20260507001032 57 318 0.9 1.7 0.00 0.00 0.00 73 1016.0
20260507000535 57 318 0.9 1.7 0.00 0.00 0.00 72 1016.2
20260507000049 57 318 0.0 0.9 0.00 0.00 0.00 72 1016.2
20260506235535 57 0 0.0 0.9 0.00 0.00 0.00 71 1016.3
20260506235033 58 0 0.0 0.9 0.00 0.00 0.00 70 1016.3
20260506234548 58 0 0.0 0.0 0.00 0.00 0.00 69 1016.4
20260506234033 58 0 0.0 0.0 0.00 0.00 0.00 67 1016.3
20260506233533 59 0 0.0 0.9 0.00 0.00 0.00 67 1016.4
20260506233048 59 0 0.0 1.7 0.00 0.00 0.00 66 1016.4
20260506232533 59 0 0.0 1.7 0.00 0.00 0.00 65 1016.5
20260506232033 59 318 0.0 3.5 0.00 0.00 0.00 65 1016.4
20260506231549 59 318 0.9 3.5 0.00 0.00 0.00 65 1016.3
20260506231034 59 318 1.7 3.5 0.00 0.00 0.00 65 1016.4
20260506230534 59 319 0.9 3.5 0.00 0.00 0.00 66 1016.4
20260506230045 59 319 1.7 3.5 0.00 0.00 0.00 66 1016.4
20260506225534 59 319 0.9 1.7 0.00 0.00 0.00 65 1016.4
20260506225034 59 0 0.0 0.9 0.00 0.00 0.00 64 1016.5
20260506224549 60 0 0.0 1.7 0.00 0.00 0.00 64 1016.5
20260506224037 60 0 0.0 2.6 0.00 0.00 0.00 64 1016.6
20260506223533 60 319 0.9 4.3 0.00 0.00 0.00 63 1016.7
20260506223103 60 319 0.9 4.3 0.00 0.00 0.00 63 1016.7
20260506222535 60 355 1.7 4.3 0.00 0.00 0.00 63 1016.7
20260506222036 60 355 1.7 4.3 0.00 0.00 0.00 63 1016.7
20260506221549 60 316 1.7 3.5 0.00 0.00 0.00 64 1016.7
20260506221033 59 316 1.7 3.5 0.00 0.00 0.00 65 1016.8
20260506220533 59 316 0.9 3.5 0.00 0.00 0.00 66 1016.8
20260506220050 58 316 1.7 2.6 0.00 0.00 0.00 67 1016.8
20260506215533 58 316 0.9 2.6 0.00 0.00 0.00 68 1016.9
20260506215033 58 316 1.7 2.6 0.00 0.00 0.00 68 1016.9
20260506214547 58 316 0.0 1.7 0.00 0.00 0.00 67 1016.9
20260506214033 58 0 0.0 1.7 0.00 0.00 0.00 67 1016.9
20260506213534 58 316 0.0 0.9 0.00 0.00 0.00 67 1017.0
20260506213047 58 0 0.0 0.9 0.00 0.00 0.00 67 1017.0
20260506212533 58 316 0.0 0.9 0.00 0.00 0.00 66 1017.2
20260506212036 58 0 0.0 0.9 0.00 0.00 0.00 65 1017.1
20260506211555 58 0 0.0 0.0 0.00 0.00 0.00 64 1017.1
20260506211036 59 0 0.0 0.0 0.00 0.00 0.00 64 1017.2
20260506210536 59 0 0.0 0.9 0.00 0.00 0.00 63 1017.2
20260506210053 59 0 0.0 0.9 0.00 0.00 0.00 62 1017.3
20260506205536 59 0 0.0 0.9 0.00 0.00 0.00 62 1017.3
20260506205033 59 0 0.0 0.9 0.00 0.00 0.00 62 1017.2
20260506204548 59 0 0.0 0.9 0.00 0.00 0.00 62 1017.2
20260506204033 59 0 0.0 0.9 0.00 0.00 0.00 62 1017.1
20260506203534 60 0 0.0 0.9 0.00 0.00 0.00 62 1017.1
20260506203049 60 316 0.0 1.7 0.00 0.00 0.00 61 1017.2
20260506202533 60 0 0.0 1.7 0.00 0.00 0.00 61 1017.2
20260506202034 60 0 0.0 0.0 0.00 0.00 0.00 61 1017.2
20260506201554 60 0 0.0 0.0 0.00 0.00 0.00 60 1017.1
20260506201035 61 0 0.0 0.0 0.00 0.00 0.00 60 1017.1
20260506200534 61 0 0.0 0.0 0.00 0.00 0.00 59 1017.0
20260506200137 61 0 0.0 0.0 0.00 0.00 0.00 59 1017.1
20260506195534 61 0 0.0 0.0 0.00 0.00 0.00 59 1017.0
20260506195034 61 0 0.0 1.7 0.00 0.00 0.00 58 1016.9
20260506194600 61 0 0.0 1.7 0.00 0.00 0.00 57 1016.8
20260506194033 62 316 0.0 1.7 0.00 0.00 0.00 57 1016.8
20260506193535 62 0 0.0 0.9 0.00 0.00 0.00 57 1016.8
20260506193049 62 0 0.0 1.7 0.00 0.00 0.00 57 1016.7
20260506192533 62 316 0.0 1.7 0.00 0.00 0.00 56 1016.6
20260506192035 62 0 0.0 0.9 0.00 0.00 0.00 56 1016.6
20260506191549 62 0 0.0 2.6 0.00 0.00 0.00 55 1016.5
20260506191034 62 0 0.9 2.6 0.00 0.00 0.00 54 1016.5
20260506190534 62 316 0.9 2.6 0.00 0.00 0.00 54 1016.5
20260506190046 62 316 1.7 2.6 0.00 0.00 0.00 54 1016.5
20260506185533 63 316 0.0 1.7 0.00 0.00 0.00 55 1016.4
20260506185034 63 0 0.0 1.7 0.00 0.00 0.00 55 1016.4
20260506184553 63 316 0.0 1.7 0.00 0.00 0.00 55 1016.3
20260506184033 64 316 0.0 1.7 0.00 0.00 0.00 54 1016.3
20260506183533 64 0 0.0 1.7 0.00 0.00 0.00 52 1016.3
20260506183053 64 0 0.0 2.6 0.00 0.00 0.00 51 1016.2
20260506182533 64 316 0.0 2.6 0.00 0.00 0.00 50 1016.2
20260506182033 64 316 0.9 2.6 0.00 0.00 0.00 50 1016.2
20260506181548 64 316 0.9 2.6 0.00 0.00 0.00 50 1016.1
20260506181033 64 316 0.9 2.6 0.00 0.00 0.00 51 1016.0
20260506180534 64 317 0.9 2.6 0.00 0.00 0.00 51 1015.9
20260506180053 65 325 0.9 2.6 0.00 0.00 0.00 51 1016.0
20260506175535 65 350 0.9 2.6 0.00 0.00 0.00 52 1015.9
20260506175033 65 350 0.9 1.7 0.00 0.00 0.00 52 1015.9
20260506174546 66 0 0.0 1.7 0.00 0.00 0.00 52 1015.9
20260506174033 66 0 0.0 0.0 0.00 0.00 0.00 53 1015.9
20260506173533 66 0 0.0 0.0 0.00 0.00 0.00 52 1015.8
20260506173057 67 0 0.0 0.0 0.00 0.00 0.00 51 1015.8
20260506172534 67 0 0.0 0.0 0.00 0.00 0.00 51 1015.8
20260506172034 68 0 0.0 0.9 0.00 0.00 0.00 50 1015.7
20260506171552 68 0 0.0 0.9 0.00 0.00 0.00 48 1015.7
20260506171034 68 350 0.0 0.9 0.00 0.00 0.00 47 1015.8
20260506170534 68 0 0.0 1.7 0.00 0.00 0.00 47 1015.8
20260506170053 69 0 0.0 2.6 0.00 0.00 0.00 45 1015.7
20260506165534 69 0 1.7 3.5 0.00 0.00 0.00 44 1015.7
20260506165033 69 350 1.7 3.5 0.00 0.00 0.00 44 1015.8
20260506164548 70 349 1.7 3.5 0.00 0.00 0.00 44 1015.8
20260506164032 70 0 0.0 3.5 0.00 0.00 0.00 44 1015.7
20260506163532 70 346 0.9 3.5 0.00 0.00 0.00 44 1015.8
20260506163050 70 347 0.9 3.5 0.00 0.00 0.00 44 1015.8
20260506162535 70 0 0.9 5.2 0.00 0.00 0.00 44 1015.8
20260506162036 70 348 2.6 5.2 0.00 0.00 0.00 44 1015.8
20260506161554 71 348 2.6 7.8 0.00 0.00 0.00 43 1015.8
20260506161034 71 348 2.6 7.8 0.00 0.00 0.00 43 1015.7
20260506160535 71 348 0.0 4.3 0.00 0.00 0.00 45 1015.8
20260506155534 71 348 2.6 5.2 0.00 0.00 0.00 45 1015.8
20260506155033 71 349 1.7 5.2 0.00 0.00 0.00 45 1015.6
20260506154552 71 349 2.6 5.2 0.00 0.00 0.00 47 1015.8
20260506154033 71 350 1.7 5.2 0.00 0.00 0.00 47 1015.8
20260506153532 71 350 1.7 5.2 0.00 0.00 0.00 48 1015.9
20260506153049 71 350 1.7 5.2 0.00 0.00 0.00 47 1015.9
20260506152536 71 348 1.7 5.2 0.00 0.00 0.00 49 1015.9
20260506152036 71 350 1.7 7.8 0.00 0.00 0.00 48 1016.0
20260506151548 70 350 2.6 7.8 0.00 0.00 0.00 48 1016.0
20260506151036 70 350 3.5 7.8 0.00 0.00 0.00 50 1016.0
20260506150534 70 350 4.3 11.3 0.00 0.00 0.00 51 1016.0
20260506150054 71 350 5.2 11.3 0.00 0.00 0.00 51 1016.1
20260506145534 71 350 4.3 9.6 0.00 0.00 0.00 48 1016.1
20260506145033 71 350 4.3 9.6 0.00 0.00 0.00 47 1016.1
20260506144552 72 350 5.2 9.6 0.00 0.00 0.00 47 1016.1
20260506144034 72 350 4.3 10.4 0.00 0.00 0.00 45 1016.1
20260506143534 71 348 3.5 10.4 0.00 0.00 0.00 47 1016.1
20260506143053 71 350 4.3 10.4 0.00 0.00 0.00 47 1016.2
20260506142532 70 350 3.5 11.3 0.00 0.00 0.00 50 1016.2
20260506142033 71 350 6.1 11.3 0.00 0.00 0.00 51 1016.2
20260506141551 71 349 4.3 10.4 0.00 0.00 0.00 50 1016.2
20260506141036 71 350 5.2 10.4 0.00 0.00 0.00 50 1016.2
20260506140533 71 348 5.2 11.3 0.00 0.00 0.00 50 1016.1
20260506140051 71 349 6.1 12.2 0.00 0.00 0.00 51 1016.2
20260506135535 71 350 2.6 12.2 0.00 0.00 0.00 50 1016.2
20260506135033 71 350 4.3 14.8 0.00 0.00 0.00 49 1016.2
20260506134616 71 349 4.3 14.8 0.00 0.00 0.00 51 1016.2
20260506134034 71 350 6.1 14.8 0.00 0.00 0.00 50 1016.3
20260506133534 71 351 3.5 11.3 0.00 0.00 0.00 51 1016.3
20260506133053 72 350 2.6 8.7 0.00 0.00 0.00 48 1016.2
20260506132533 72 0 4.3 8.7 0.00 0.00 0.00 53 1016.2
20260506132035 72 350 3.5 7.8 0.00 0.00 0.00 53 1016.2
20260506131605 72 350 3.5 7.8 0.00 0.00 0.00 54 1016.3
20260506131035 72 348 4.3 9.6 0.00 0.00 0.00 54 1016.1
20260506130534 71 350 3.5 9.6 0.00 0.00 0.00 54 1016.2
20260506130048 72 350 4.3 7.8 0.00 0.00 0.00 53 1016.2
20260506125533 72 349 3.5 7.8 0.00 0.00 0.00 55 1016.3
20260506125033 72 350 1.7 7.8 0.00 0.00 0.00 54 1016.2
20260506124546 73 350 2.6 7.8 0.00 0.00 0.00 53 1016.3
20260506124033 72 350 3.5 7.8 0.00 0.00 0.00 52 1016.4
20260506123533 72 350 2.6 9.6 0.00 0.00 0.00 50 1016.4
20260506123050 71 351 2.6 9.6 0.00 0.00 0.00 52 1016.4
20260506122533 71 351 4.3 9.6 0.00 0.00 0.00 52 1016.5
20260506122031 71 350 5.2 9.6 0.00 0.00 0.00 51 1016.5
20260506121549 72 350 4.3 9.6 0.00 0.00 0.00 51 1016.5
20260506121034 72 350 3.5 10.4 0.00 0.00 0.00 51 1016.5
20260506120535 71 351 4.3 11.3 0.00 0.00 0.00 56 1016.5
20260506120051 71 351 6.1 11.3 0.00 0.00 0.00 53 1016.6
20260506115536 71 350 5.2 10.4 0.00 0.00 0.00 55 1016.6
20260506115033 72 351 4.3 12.2 0.00 0.00 0.00 54 1016.7
20260506114552 71 351 5.2 12.2 0.00 0.00 0.00 52 1016.6
20260506114032 72 350 6.1 11.3 0.00 0.00 0.00 51 1016.7
20260506113536 72 350 2.6 11.3 0.00 0.00 0.00 50 1016.7
20260506113048 71 350 6.1 11.3 0.00 0.00 0.00 51 1016.6
20260506112533 71 350 6.1 11.3 0.00 0.00 0.00 47 1016.7
20260506112033 71 350 7.0 11.3 0.00 0.00 0.00 45 1016.7
20260506111610 72 350 6.1 11.3 0.00 0.00 0.00 48 1016.6
20260506111033 71 350 5.2 10.4 0.00 0.00 0.00 49 1016.5
20260506110533 71 350 6.1 10.4 0.00 0.00 0.00 49 1016.6
20260506110054 72 350 4.3 10.4 0.00 0.00 0.00 50 1016.6
20260506105533 72 350 4.3 7.8 0.00 0.00 0.00 52 1016.6
20260506105034 72 350 3.5 8.7 0.00 0.00 0.00 54 1016.6
20260506104548 72 351 4.3 8.7 0.00 0.00 0.00 50 1016.5
20260506104033 72 350 4.3 8.7 0.00 0.00 0.00 50 1016.6
20260506103533 72 351 3.5 9.6 0.00 0.00 0.00 51 1016.6
20260506103048 72 350 4.3 9.6 0.00 0.00 0.00 50 1016.6
20260506102536 73 350 3.5 8.7 0.00 0.00 0.00 53 1016.6
20260506102039 72 351 4.3 9.6 0.00 0.00 0.00 49 1016.7
20260506101550 72 351 5.2 9.6 0.00 0.00 0.00 48 1016.7
20260506101035 72 350 4.3 8.7 0.00 0.00 0.00 47 1016.7
20260506100536 72 351 5.2 8.7 0.00 0.00 0.00 44 1016.6
20260506100045 72 351 4.3 9.6 0.00 0.00 0.00 43 1016.7
20260506095533 72 351 4.3 9.6 0.00 0.00 0.00 44 1016.6
20260506095035 73 350 4.3 9.6 0.00 0.00 0.00 44 1016.7
20260506094545 73 350 7.0 9.6 0.00 0.00 0.00 43 1016.7
20260506094037 74 350 6.1 9.6 0.00 0.00 0.00 42 1016.7
20260506093533 74 350 3.5 8.7 0.00 0.00 0.00 41 1016.7
20260506093054 74 351 2.6 8.7 0.00 0.00 0.00 41 1016.7
20260506092533 73 351 4.3 10.4 0.00 0.00 0.00 41 1016.7
20260506092039 74 350 4.3 11.3 0.00 0.00 0.00 43 1016.8
20260506091552 74 351 3.5 11.3 0.00 0.00 0.00 43 1016.7
20260506091033 73 351 7.0 11.3 0.00 0.00 0.00 43 1016.8
20260506090536 73 351 5.2 10.4 0.00 0.00 0.00 46 1016.8
20260506090047 73 351 4.3 10.4 0.00 0.00 0.00 47 1016.7
20260506085534 73 351 3.5 10.4 0.00 0.00 0.00 48 1016.7
20260506085035 73 351 5.2 11.3 0.00 0.00 0.00 47 1016.6
20260506084549 73 351 5.2 11.3 0.00 0.00 0.00 46 1016.5
20260506084033 73 350 4.3 8.7 0.00 0.00 0.00 46 1016.6
20260506083534 73 351 4.3 8.7 0.00 0.00 0.00 48 1016.5
20260506083112 73 351 2.6 7.8 0.00 0.00 0.00 49 1016.5
20260506082535 73 351 2.6 8.7 0.00 0.00 0.00 48 1016.5
20260506082035 72 350 3.5 8.7 0.00 0.00 0.00 48 1016.5
20260506081552 72 351 4.3 9.6 0.00 0.00 0.00 48 1016.5
20260506081033 72 351 2.6 9.6 0.00 0.00 0.00 49 1016.5
20260506080533 72 351 5.2 9.6 0.00 0.00 0.00 49 1016.5
20260506073048 71 350 4.3 7.8 0.00 0.00 0.00 49 1016.3
20260506072536 70 352 4.3 10.4 0.00 0.00 0.00 49 1016.3
20260506072034 70 350 5.2 10.4 0.00 0.00 0.00 49 1016.2
20260506071551 70 350 3.5 9.6 0.00 0.00 0.00 49 1016.2
20260506071033 69 351 3.5 8.7 0.00 0.00 0.00 49 1016.1
20260506070536 69 350 2.6 7.0 0.00 0.00 0.00 49 1016.1
20260506062033 68 350 0.9 2.6 0.00 0.00 0.00 51 1016.2
20260506061550 68 350 0.9 2.6 0.00 0.00 0.00 52 1016.2
20260506061034 67 0 0.0 1.7 0.00 0.00 0.00 54 1016.1
20260506060534 67 350 0.0 1.7 0.00 0.00 0.00 55 1016.1
20260506051033 63 355 1.7 4.3 0.00 0.00 0.00 63 1015.9
20260506050534 62 352 0.9 4.3 0.00 0.00 0.00 66 1015.8
20260506045032 59 0 0.9 2.6 0.00 0.00 0.00 72 1015.7
20260506044550 58 0 0.0 1.7 0.00 0.00 0.00 72 1015.7
20260506044034 58 355 0.0 1.7 0.00 0.00 0.00 73 1015.8
20260506043534 57 0 0.0 0.0 0.00 0.00 0.00 74 1015.7
20260506043047 57 0 0.0 1.7 0.00 0.00 0.00 73 1015.7
20260506042533 57 0 0.0 2.6 0.00 0.00 0.00 73 1015.7
20260506042034 57 355 0.0 2.6 0.00 0.00 0.00 74 1015.6
20260506041549 56 0 0.0 2.6 0.00 0.00 0.00 73 1015.6
20260506041033 56 355 0.0 1.7 0.00 0.00 0.00 73 1015.6